Flag for Argentina Weather past 2 weeks in Jujuy, Jujuy, Argentina

Now
50 °F

Clear.


Feels Like: 49 °F
Forecast: 46 / 70 °F
Wind: 3 mph from Northwest

Location: Jujuy Aerodrome


UV Index: 7 (High)

Visibility: 10 mi


Pressure: 29.89 "Hg

Humidity: 88%

Dew point: 46 °F

Location of JujuyLocation

Historic Weather in Jujuy

°F

Jujuy temperature yesterday

Maximum temperature yesterday: 70 °F (at 2:00 PM)
Minimum temperature yesterday: 46 °F (at 7:00 AM)
Average temperature yesterday: 58 °F

Past Weeks' High & Low Weather Summary

 TemperatureHumidityPressure
High86 °F (Apr 7, 2:00 PM)100% (Apr 1, 6:00 AM)30.42 "Hg (Apr 1, 6:00 AM)
Low43 °F (Apr 14, 7:00 AM)42% (Apr 12, 4:00 PM)29.65 "Hg (Apr 7, 4:00 PM)
Average68 °F81%29.99 "Hg
* Reported Apr 1 4:00 AM — Apr 16 2:00 AM, Jujuy, Weather by CustomWeather, © 2014

Note: Actual official high and low records may vary slightly from our data, if they occured in-between our weather recording intervals... More about our weather records

Advertising

Historic Weather Conditions — Data for Previous 24 hours

 ConditionsComfort  
Time TempWeatherWind HumidityBarometerVisibility
2:00 AM
Apr 16
52 °FClear.3 mph94%29.95 "Hg10 mi
1:00 AM52 °FClear.6 mph94%29.98 "Hg10 mi
12:00 AM52 °FClear.5 mph94%29.98 "Hg10 mi
11:00 PM
Apr 15
52 °FClear.2 mph94%30.01 "Hg10 mi
10:00 PM54 °FClear.6 mph94%30.01 "Hg10 mi
8:00 PM61 °FClear.No wind83%29.98 "Hg10 mi
7:00 PM64 °FClear.5 mph73%29.98 "Hg10 mi
6:00 PM70 °FSunny.8 mph57%29.98 "Hg10 mi
4:00 PM70 °FSunny.7 mph53%29.98 "Hg10 mi
3:00 PM70 °FSunny.8 mph53%30.01 "Hg10 mi
2:00 PM70 °FSunny.3 mph53%30.04 "Hg10 mi
1:00 PM66 °FSunny.No wind52%30.09 "Hg10 mi
12:00 PM64 °FSunny.No wind56%30.12 "Hg10 mi
11:00 AM63 °FSunny.No wind59%30.15 "Hg10 mi
10:00 AM59 °FSunny.3 mph68%30.15 "Hg10 mi
9:00 AM52 °FSunny.8 mph88%30.15 "Hg10 mi
8:00 AM46 °FSunny.7 mph87%30.15 "Hg10 mi
7:00 AM46 °FSunny.5 mph87%30.12 "Hg10 mi
6:00 AM48 °FClear.5 mph87%30.12 "Hg10 mi
Weather by CustomWeather, © 2014

See weather overview